Regional Weather Roundup
Issued by NWS

Home | Current Version | Previous Version | Graphics & Text | Print | Product List | Glossary Off
Versions: 1 2 3 4 5 6 7 8 9 10 11 12 13 14 15 16 17 18 19 20 21 22 23 24 25 26 27 28 29 30 31 32 33 34 35 36 37 38 39 40 41 42 43 44 45 46 47 48 49 50

000
ASUS43 KMKX 041421
RWRWI

WISCONSIN REGIONAL WEATHER ROUNDUP
NATIONAL WEATHER SERVICE MILWAUKEE/SULLIVAN WI
900 AM CDT MON MAY 04 2015

NOTE: "FAIR" INDICATES FEW OR NO CLOUDS BELOW 12,000 FEET WITH NO
SIGNIFICANT WEATHER AND/OR OBSTRUCTIONS TO VISIBILITY.

WIZ001-002-006>008-014>016-023>028-041500-
NORTHWEST WISCONSIN

CITY           SKY/WX    TMP DP  RH WIND       PRES   REMARKS
SUPERIOR ARPT  SUNNY     54  39  56 CALM      30.16S
ASHLAND        SUNNY     56  40  55 NW6       30.15R
HAYWARD        SUNNY     56  35  45 N7        30.15R
SIREN          SUNNY     56  34  43 N8        30.16S
CUMBERLAND     SUNNY     54  34  47 N15       30.14S
RICE LAKE      SUNNY     56  38  51 N13       30.15S
CHETEK         SUNNY     55  40  57 N7        30.13S
LADYSMITH      SUNNY     55  40  58 N12       30.15R
EAU CLAIRE     SUNNY     57  40  52 NE8       30.12R
MENOMONIE      SUNNY     57  39  52 N8G17     30.13R
NEW RICHMOND   SUNNY     57  40  52 N15       30.14S
OSCEOLA        SUNNY     56  38  50 N10G16    30.17S
$$

WIZ003>005-009-010-017-018-041500-
NORTH CENTRAL WISCONSIN

CITY           SKY/WX    TMP DP  RH WIND       PRES   REMARKS
MANITOWISH WTR SUNNY     53  37  54 N10       30.11R
ARBOR VITAE    SUNNY     57  41  55 N9        30.10S
WOODRUFF       SUNNY     57  41  55 N9        30.10S
RHINELANDER    MOSUNNY   54  39  57 N7        30.10R
EAGLE RIVER    SUNNY     55  36  50 N10       30.10R
LAND O LAKES   SUNNY     54  37  51 N10       30.11R
PHILLIPS       SUNNY     53  41  63 CALM      30.11R
TOMAHAWK       MOSUNNY   54  41  62 N6        30.11R
MEDFORD        SUNNY     54  42  65 N9        30.10R
MERRILL        MOSUNNY   56  43  61 N8        30.09R
$$

WIZ029-030-035-036-043>047-041500-
CENTRAL WISCONSIN

CITY           SKY/WX    TMP DP  RH WIND       PRES   REMARKS
WAUSAU         MOSUNNY   57  41  55 N12       30.07R
MOSINEE        SUNNY     57  46  67 N10       30.09R
MARSHFIELD     MOSUNNY   60  41  49 N12       30.08R
STEVENS POINT  PTSUNNY   56  46  69 N8        30.08R
WAUPACA        PTSUNNY   63  52  67 N8        30.06R
WAUTOMA        PTSUNNY   62  55  77 N8        30.05R
WISC RAPIDS    MOSUNNY   59  44  57 NE14      30.08R
CAMP DOUGLAS   MOSUNNY   59  59 100 N8        30.06R
$$

WIZ011>013-019>022-031-037>040-048>050-041500-
NORTHEAST WISCONSIN

CITY           SKY/WX    TMP DP  RH WIND       PRES   REMARKS
ANTIGO         PTSUNNY   55  44  67 N9        30.09R
SHAWANO        PTSUNNY   62  47  57 N8        30.06R
OCONTO         PTSUNNY   62  45  52 N10       30.03R
STURGEON BAY   PTSUNNY   59  43  55 N13       30.06R
GREEN BAY      PTSUNNY   63  49  60 N13       30.04R
MANITOWOC      CLOUDY    63  54  72 N13       30.02R
APPLETON       PTSUNNY   61  55  82 N13       30.04R
CLINTONVILLE   PTSUNNY   61  48  63 NE8       30.05R
OSHKOSH        CLOUDY    62  55  77 N10       30.03R
$$

WIZ032>034-041-042-053>061-041500-
SOUTHWEST WISCONSIN

CITY           SKY/WX    TMP DP  RH WIND       PRES   REMARKS
LA CROSSE      MOSUNNY   62  45  53 N12       30.09R
SPARTA         PTSUNNY   58  46  63 N8        30.10R
VIROQUA        MOSUNNY   58  52  78 N9        30.08R
BOSCOBEL       CLOUDY    62  58  86 CALM      30.07R
PRAIRIE DU CHI CLOUDY    59  57  91 CALM      30.07R
PLATTEVILLE    CLOUDY    60  58  92 N5        30.08R
$$

WIZ056-057-062-063-064-067-068-041500-
SOUTH CENTRAL WISCONSIN

CITY           SKY/WX    TMP DP  RH WIND       PRES   REMARKS
REEDSBURG      CLOUDY    61  57  88 NW6       30.05R
BARABOO/DELLS  NOT AVBL
LONE ROCK      CLOUDY    63  56  78 VRB3      30.05R
MINERAL POINT  CLOUDY    63  59  88 CALM      30.07R
MADISON        CLOUDY    61  56  83 N6        30.06R
MIDDLETON      CLOUDY    62  58  86 N12       30.06R
WATERTOWN      CLOUDY    60  60 100 NW6       30.03R
MONROE         CLOUDY    59  55  88 CALM      30.07R
JANESVILLE     PTSUNNY   61  57  88 N7        30.05R
$$

WIZ051-052-058>065-066-070>072-041500-
SOUTHEAST WISCONSIN

CITY           SKY/WX    TMP DP  RH WIND       PRES   REMARKS
MILWAUKEE      CLOUDY    64  54  69 NW8       30.02R
WAUKESHA       PTSUNNY   61  55  82 NW7       30.04R
MILWAUKEE/TIMM SUNNY     63  54  72 N10       30.03R
RACINE         CLOUDY    64  55  72 W6        30.04R
BURLINGTON     CLOUDY    59  56  89 NW3       30.05R
KENOSHA        CLOUDY    62  58  86 W5        30.04R
FOND DU LAC    CLOUDY    62  56  80 NW12      30.03R
SHEBOYGAN      CLOUDY    62  58  86 N12       30.02R
WEST BEND      CLOUDY    59  54  82 NW8       30.03R
JUNEAU         CLOUDY    60  57  89 NW8       30.04S
$$

LSZ147-162-041500-
LAKE SUPERIOR

STATION/POSITION TIME  TEMP    WIND        PRES    WAVE
                       AIR SEA DIR/SP/G            HT/PER
                 (UTC) (F)     (DEG/KT/KT) (MB)    (FT/S)
W MID LAKE BUOY  1350   39 35  230/  8/ 10 1020.8R   1
DEVILS ISLAND    1400   43     240/  9/ 11 1021.4R
PORT WING        1300   49     190/  4/  6 1021.0R
SAXON HARBOR     1300   51        CALM     1020.0R
$$

LMZ867-665-643>646-041500-
LAKE MICHIGAN

STATION/POSITION TIME  TEMP    WIND        PRES    WAVE
                       AIR SEA DIR/SP/G            HT/PER
                 (UTC) (F)     (DEG/KT/KT) (MB)    (FT/S)
CHAMBERS ISLAND  1300   58     300/  8/ 10 1016.3R
NORTHPORT PIER   1300   56     300/ 12/ 17 1015.9R
SISTER BAY       1302   52     360/ 11/ 13   N/A
KEWAUNEE LAKESHO 1300   62     330/  7/ 12 1015.1R
SHEBOYGAN LAKESH 1400   61     350/ 10/ 12 1016.6R
PORT WASHINGTON  1300   61     300/  7/ 13 1016.6R
ATWATER BUOY     1400   54     330/  4/  6 1017.8R
MILWAUKEE LAKESH 1400   64     310/  7/ 10   N/A
KENOSHA   LAKESH 1400   62     260/  6/  7 1017.3R
$$

TC  - TEMPERATURE IN CELSIUS
VSB - VISIBILITY IN STATUTE MILES
WCI - WIND CHILL INDEX
HX  - HEAT INDEX




USA.gov is the U.S. government's official web portal to all federal, state and local government web resources and services.